Theta_e
311 311 311 311 311 311 311 311 311 310 310 309 308 308 308 308 308 308 308 309 309 309 310 310 310 311 310 311 311 311 312 313 313 313 316 319 316 314 315 314 314 313 313 312 313 315 315 315 316 315 316 317 317 319 319 316 316 321 329 330 322 319 318 316 320 322 321 319 317 316 316 317 317 317 317 316 316 316 316 315 314 314 314 314 313 313 313 313
310 311 311 311 311 311 311 311 310 309 308 308 308 308 308 308 308 308 309 309 310 310 310 310 310 311 310 311 311 311 312 313 313 315 318 318 315 314 315 314 314 313 314 314 314 315 316 316 315 315 315 316 318 318 319 320 317 320 329 328 320 319 316 315 318 317 317 318 316 317 317 316 317 317 317 317 316 315 316 315 314 314 314 313 313 313 313 313
310 310 310 310 310 310 310 309 308 308 307 307 307 308 308 308 308 309 309 309 310 310 310 310 310 310 310 311 311 312 312 313 316 318 319 316 314 314 314 314 314 314 315 316 316 316 316 316 315 315 315 316 317 317 317 320 319 318 325 326 319 317 315 315 317 316 317 317 316 317 316 316 316 316 316 316 315 315 315 315 314 315 314 314 314 313 313 313
308 308 309 309 309 309 308 308 307 307 307 307 307 308 308 309 309 309 310 310 310 310 310 310 310 310 311 311 311 312 312 315 318 317 315 314 314 314 314 315 314 315 315 315 317 317 315 316 316 315 315 316 316 316 317 318 318 317 323 325 317 315 316 316 317 316 317 317 316 317 316 316 316 316 316 315 316 316 314 315 315 315 315 315 314 313 313 313
307 307 307 307 308 307 308 307 307 307 308 308 308 308 309 309 309 310 310 310 310 310 310 310 310 310 310 311 312 312 313 318 318 314 313 314 314 314 314 314 314 314 314 315 317 317 316 316 316 316 316 316 317 317 317 317 317 317 319 320 317 316 317 316 317 316 316 317 316 316 316 316 316 316 316 315 318 318 315 315 316 316 316 315 314 313 313 313
308 308 307 307 307 307 307 308 308 308 308 308 308 309 309 309 309 309 309 310 310 310 310 310 310 310 311 311 312 314 316 319 317 314 314 314 313 314 314 313 314 314 315 317 318 317 318 317 316 317 317 316 317 318 318 316 316 318 317 316 317 317 317 317 317 317 316 316 316 316 316 316 316 316 316 315 316 317 315 315 315 315 314 314 313 313 312 313
308 308 308 308 308 308 308 308 308 308 308 308 309 309 309 309 309 309 309 310 310 310 310 310 310 310 311 311 313 317 316 317 316 315 315 314 314 314 314 314 315 316 318 318 318 318 318 318 317 316 317 317 317 317 317 316 315 318 318 316 317 317 317 318 317 317 316 315 316 316 316 316 316 316 316 315 315 316 316 315 313 312 312 312 312 312 312 313
310 309 309 308 308 308 308 308 308 308 308 308 308 309 309 309 309 309 309 309 309 309 310 310 310 311 311 312 316 317 316 318 318 317 316 315 315 314 315 316 317 318 318 318 318 318 318 318 317 317 317 316 316 316 316 317 316 318 318 317 318 317 317 317 318 317 316 316 316 316 316 316 316 316 315 315 315 315 315 314 312 312 312 312 311 312 312 312
311 311 310 309 309 309 308 308 308 308 308 308 309 309 309 309 309 309 309 309 309 309 309 310 311 312 313 315 317 317 319 321 319 317 318 317 317 317 317 318 319 318 318 319 318 318 318 317 317 317 317 316 317 316 315 318 318 316 317 316 316 316 316 317 317 317 316 316 316 316 315 315 316 315 315 315 315 314 314 313 312 311 312 312 311 311 312 312
311 311 311 311 310 309 309 309 309 308 308 308 309 309 309 309 309 309 309 309 309 309 310 311 312 314 315 317 318 319 321 322 320 319 319 319 319 318 319 319 318 319 318 318 318 318 318 317 317 317 317 317 316 316 315 317 317 315 316 315 315 316 316 316 316 317 316 316 316 316 315 316 315 315 315 314 314 314 313 312 311 312 311 311 312 312 312 312
311 311 311 311 311 311 310 309 309 309 309 308 309 309 309 309 309 309 309 309 309 310 310 312 314 315 317 317 318 320 320 321 321 321 320 319 319 319 319 318 318 318 318 318 318 318 317 317 318 318 318 316 316 316 315 316 316 315 315 316 316 315 315 316 315 316 316 316 316 316 315 314 314 315 315 314 313 313 312 312 311 312 312 312 312 312 312 312
310 310 310 311 311 311 311 311 310 309 309 309 309 309 308 308 309 309 309 309 309 311 312 314 315 316 317 317 317 317 318 319 321 321 320 319 319 318 318 318 318 318 317 318 318 318 318 318 318 317 317 316 316 316 315 315 315 315 316 317 319 317 317 316 315 315 316 316 316 315 315 316 315 314 315 314 313 312 311 312 312 312 312 312 312 312 312 312
309 309 309 310 310 310 311 311 311 310 310 309 309 309 309 308 308 308 309 309 310 312 314 316 317 317 317 316 317 317 318 319 320 320 320 319 319 318 318 317 317 317 317 317 318 318 318 318 317 317 316 316 317 316 316 315 315 317 315 315 320 320 321 319 314 316 316 315 316 315 318 324 320 313 313 314 313 312 311 311 312 312 312 312 312 312 312 312
308 309 309 309 309 310 310 311 311 311 310 310 309 309 309 308 308 308 309 310 312 314 315 317 318 317 317 317 317 318 319 319 319 319 319 319 318 317 317 317 317 317 317 317 317 317 317 318 316 316 316 316 316 315 317 315 315 318 316 318 321 320 327 324 313 315 316 314 315 315 318 325 322 313 312 313 312 312 312 312 312 312 312 312 312 312 312 312
308 308 308 308 309 309 309 310 310 311 310 310 309 309 308 308 308 308 310 312 314 315 317 317 317 317 317 317 318 318 318 319 319 318 318 318 318 317 317 317 317 317 317 317 317 317 317 317 316 317 316 316 316 317 320 320 319 318 318 327 326 319 329 327 313 314 317 314 313 315 319 322 319 313 312 312 312 312 312 312 312 312 312 312 312 312 312 312
308 308 308 308 308 308 309 309 310 310 310 309 309 308 308 308 309 310 312 314 315 316 317 317 317 316 317 317 317 318 319 318 319 318 318 318 317 317 317 317 317 317 317 317 317 317 316 316 316 316 315 316 318 322 327 326 326 323 319 328 328 320 325 324 315 314 315 314 313 315 320 322 318 313 311 312 311 313 313 312 313 312 312 312 312 312 311 311
308 308 308 308 308 308 308 308 308 309 308 308 308 308 308 309 311 313 315 316 317 317 316 317 318 317 317 317 317 318 319 318 318 318 318 317 317 317 317 317 317 317 317 317 316 316 316 315 316 317 316 316 319 326 328 325 328 329 320 321 324 321 321 321 320 316 313 315 315 314 316 319 318 312 311 312 311 312 313 312 313 312 312 312 311 311 310 311
307 308 308 308 308 307 307 307 308 307 307 307 307 308 310 312 314 315 315 316 316 316 315 317 318 317 317 317 317 318 318 318 318 318 318 317 317 316 317 317 317 316 316 316 316 315 316 315 316 320 319 317 318 323 325 324 328 330 325 322 323 323 322 322 322 318 314 316 316 315 315 316 317 313 311 312 312 312 313 313 313 313 312 312 311 311 310 310
307 307 307 308 308 307 306 306 307 307 307 307 309 311 312 314 314 315 315 315 315 316 317 317 317 317 318 318 317 318 318 318 318 318 317 317 316 316 316 316 316 316 315 317 317 314 315 317 318 321 321 320 318 319 322 324 327 328 327 328 327 325 324 323 322 318 315 316 317 316 316 315 316 316 312 311 312 312 312 313 312 313 312 312 311 310 310 310
307 307 307 307 308 306 306 306 306 306 307 309 311 312 313 314 316 316 315 314 315 316 317 318 316 316 318 319 318 318 319 318 318 318 317 317 316 316 316 316 316 315 316 320 320 315 315 320 322 323 322 320 318 318 319 320 322 322 322 325 325 325 324 323 321 317 314 316 319 317 317 316 317 318 314 311 312 311 311 312 312 313 312 311 311 310 310 310
307 307 307 307 307 306 306 306 306 307 309 311 313 313 315 315 317 319 317 316 315 315 316 317 317 317 318 319 319 319 319 317 317 317 317 317 316 316 317 316 317 318 317 318 319 315 317 321 322 322 320 317 319 319 317 318 319 319 320 321 323 324 324 322 320 317 315 317 322 320 318 317 318 319 314 311 311 310 310 311 311 312 312 312 311 310 310 309
307 307 307 307 306 307 307 307 306 308 311 313 314 314 316 317 317 318 318 319 318 317 318 317 317 318 318 318 319 319 318 318 318 318 318 317 317 317 317 317 319 321 319 317 318 318 319 320 319 318 317 317 320 320 318 318 318 320 321 320 322 325 324 323 321 318 316 317 325 325 320 319 319 319 314 310 311 311 311 312 312 313 312 311 311 310 310 309
308 307 307 306 306 307 308 308 308 310 313 314 314 314 317 319 318 318 318 319 319 318 318 319 318 317 317 318 319 319 318 318 318 318 318 317 316 317 316 317 319 320 320 320 321 322 323 324 320 315 316 319 320 321 320 320 319 322 322 320 323 325 323 325 323 318 317 318 322 324 320 318 318 319 317 313 312 312 312 312 312 312 313 312 311 311 310 310
308 307 307 306 308 309 309 310 311 311 313 314 314 314 317 320 319 319 318 316 318 317 316 318 318 318 318 318 318 319 318 318 319 318 318 317 317 317 316 317 318 319 319 320 320 321 323 324 319 315 318 320 320 321 321 321 321 324 325 322 324 326 323 324 323 319 320 321 320 319 320 322 320 319 319 315 312 312 311 311 312 312 312 312 311 311 310 311
309 308 307 307 310 311 310 312 312 312 313 315 315 315 317 318 318 318 316 318 322 320 318 318 318 318 318 317 318 318 318 318 318 318 318 317 318 317 316 316 318 320 319 319 319 319 320 319 318 320 321 320 321 321 323 324 322 323 326 324 323 326 324 323 324 322 325 328 323 319 325 331 327 321 321 318 314 314 312 310 311 312 311 311 311 310 310 310
310 309 308 308 311 312 313 315 313 311 313 315 314 315 316 317 317 317 317 322 325 321 320 320 319 320 318 318 319 317 319 319 317 318 318 318 318 318 318 318 318 319 319 319 319 320 320 319 319 323 324 324 323 321 324 325 321 322 326 326 325 323 324 324 324 324 328 331 324 319 326 330 326 323 325 322 318 316 314 310 310 310 310 310 310 310 310 309
311 310 308 309 311 313 314 315 313 311 313 314 314 315 316 316 317 316 318 323 323 321 322 321 320 320 319 319 319 318 322 321 318 318 318 318 318 318 320 319 318 319 318 319 322 322 321 321 322 324 324 326 323 321 325 323 322 326 326 327 328 324 323 325 324 325 329 329 323 319 324 325 323 323 323 323 321 318 315 312 310 308 309 310 310 310 310 309
312 311 309 310 312 313 313 314 313 312 313 315 315 315 316 317 317 318 320 322 321 321 324 322 319 319 319 319 319 319 320 320 319 319 317 317 317 317 319 319 319 320 318 320 324 322 320 322 325 324 323 324 323 325 327 322 323 327 324 326 329 326 326 326 325 326 326 326 323 321 323 324 324 323 320 319 322 320 315 313 311 308 308 309 309 309 309 309
313 313 310 310 313 313 314 315 315 314 314 317 317 315 316 317 317 321 322 320 321 323 322 321 320 319 319 319 318 319 317 317 319 318 316 317 317 317 318 318 317 319 318 319 324 323 320 320 321 323 324 323 325 326 326 324 322 322 321 326 330 328 328 328 326 326 325 325 325 323 323 324 326 326 320 317 320 321 317 314 311 309 308 309 309 309 308 308
314 314 311 311 313 314 314 316 316 315 315 317 316 314 316 318 319 323 322 320 323 325 318 318 321 319 319 319 319 319 317 316 316 316 316 316 316 316 317 318 317 319 322 321 323 322 318 315 316 320 322 319 321 320 317 320 319 318 323 328 330 329 329 329 327 324 324 325 325 324 323 323 325 326 322 320 321 320 318 316 314 309 308 309 308 309 308 307
315 315 312 312 314 315 315 317 317 316 316 316 315 315 316 320 322 324 322 318 319 322 317 317 320 319 319 321 321 319 317 316 314 316 317 316 316 316 317 319 319 321 324 323 324 322 317 318 317 317 316 316 321 319 315 318 317 319 328 329 327 328 328 327 323 321 324 325 324 324 322 321 324 325 322 320 319 319 318 318 317 311 308 308 308 308 308 307
316 315 313 312 314 315 316 317 317 317 316 315 315 316 318 322 324 323 320 316 317 322 321 320 320 320 320 322 323 320 318 317 314 316 319 317 318 317 317 321 321 323 325 323 324 322 320 322 319 316 315 316 323 323 320 321 319 322 327 326 325 326 326 326 322 321 324 324 321 321 322 321 322 323 321 320 319 319 317 315 315 311 307 308 308 307 307 306
317 316 314 313 314 316 316 317 317 317 316 316 315 317 321 323 323 322 319 316 319 322 322 321 320 320 321 323 323 320 319 320 316 316 318 317 318 318 318 321 320 324 329 324 322 323 324 323 319 318 317 316 321 322 322 323 322 321 323 325 327 325 325 326 324 323 324 324 321 318 320 322 322 322 321 320 317 314 312 312 313 312 309 308 307 307 307 306
318 317 316 315 314 315 316 317 318 317 316 316 317 319 322 322 321 321 320 318 320 321 320 321 321 320 321 323 323 320 320 321 316 317 320 318 319 320 319 320 319 323 328 324 321 323 326 327 322 321 319 318 320 320 322 324 321 319 321 324 325 326 329 328 325 326 326 325 320 316 320 325 325 323 319 313 310 308 309 311 313 312 310 309 307 306 306 305
319 318 317 316 315 316 316 316 318 317 315 316 318 320 321 321 319 319 319 318 320 322 320 320 321 321 322 322 322 320 321 322 317 317 320 319 319 320 319 319 317 320 326 325 323 321 323 328 325 318 317 318 319 318 319 322 321 319 322 324 323 326 329 327 324 322 321 322 319 317 323 325 323 321 315 308 307 308 308 309 310 309 308 307 306 305 305 305
320 319 318 316 316 317 317 316 317 316 315 317 319 320 321 320 320 321 320 318 321 323 321 321 321 323 323 322 322 320 320 323 320 319 320 319 319 319 318 318 316 318 322 322 324 324 323 327 322 315 315 316 316 317 316 319 323 320 320 322 321 323 324 325 324 319 317 322 322 319 322 322 319 319 315 310 310 310 308 307 306 306 306 306 305 305 305 305
320 319 319 317 316 316 317 317 317 315 315 318 320 320 321 320 321 323 322 319 320 322 322 322 322 323 323 322 322 321 321 322 320 320 321 319 321 321 318 319 317 316 319 320 324 326 326 326 319 316 319 315 311 316 315 315 319 321 321 320 319 322 324 325 326 323 321 324 324 321 321 321 320 320 315 311 313 313 310 308 305 303 304 305 304 304 305 305
320 319 319 319 317 317 317 318 318 315 315 318 320 320 320 320 319 321 321 320 320 322 322 322 322 322 323 323 322 321 321 323 320 320 322 320 322 322 319 320 319 316 317 318 322 325 325 326 320 315 318 315 311 316 318 315 314 319 321 318 320 326 324 324 325 325 325 325 325 323 321 320 320 320 318 316 316 316 312 310 308 304 303 303 304 304 304 304
320 319 318 319 318 317 317 317 318 316 316 318 319 320 320 319 318 319 321 320 320 321 321 321 321 322 323 323 322 321 320 322 319 319 322 321 321 321 318 320 320 317 316 317 321 326 327 327 322 314 314 315 314 317 321 319 314 315 317 315 320 325 323 323 324 324 326 325 325 325 323 322 321 319 320 320 317 315 312 310 308 305 303 304 304 304 304 304
319 318 317 319 319 318 318 317 317 316 317 318 318 319 319 318 318 318 320 321 321 321 321 321 321 322 323 322 322 321 320 320 319 319 322 321 321 321 318 319 321 318 317 317 319 325 325 325 323 316 313 315 317 318 320 320 317 316 318 318 319 319 319 322 322 322 325 325 325 325 323 325 324 318 318 318 315 313 312 311 309 305 304 305 304 304 305 304
318 318 318 319 319 319 318 317 316 316 316 316 316 316 317 317 318 318 318 320 321 320 320 322 322 321 322 322 322 321 320 320 319 319 322 320 321 324 320 318 321 320 319 320 321 324 324 323 324 318 314 317 320 318 316 318 318 317 318 318 318 318 319 322 321 321 321 323 325 325 323 325 320 314 316 317 315 311 309 310 308 306 305 304 304 305 305 305
315 317 319 318 318 319 318 316 316 316 315 314 314 314 315 317 318 318 318 319 321 320 319 322 324 322 321 322 321 321 320 321 320 320 322 320 321 324 320 316 318 319 320 322 322 320 320 322 323 320 316 316 318 315 312 314 317 316 317 319 319 318 319 322 323 322 320 321 322 322 324 322 313 311 315 314 312 309 308 308 307 306 306 305 304 305 305 305
312 315 317 318 318 318 317 317 317 316 314 312 312 314 315 316 317 317 318 319 320 320 319 321 323 322 323 324 322 320 320 320 319 320 321 320 320 319 315 315 318 319 320 322 321 318 317 321 323 321 318 315 314 314 312 312 315 316 318 319 318 318 318 320 323 323 321 321 321 320 323 320 312 312 311 306 305 308 308 308 307 306 306 305 305 305 305 304
310 310 313 316 318 318 317 317 317 315 314 312 313 314 315 316 316 318 319 318 320 321 320 320 321 321 323 325 322 319 319 321 320 319 320 321 318 313 311 315 318 319 320 321 321 319 319 322 323 322 322 319 317 316 315 314 315 316 319 318 316 317 318 318 320 320 320 320 321 321 322 320 316 315 311 307 309 310 307 307 308 307 306 306 305 305 305 304
308 308 310 313 316 317 317 317 316 314 312 312 312 313 314 315 316 317 319 319 319 320 320 320 320 320 322 322 320 318 318 321 323 320 318 320 317 310 308 312 315 317 317 317 319 319 320 322 322 323 325 324 322 321 319 318 315 314 317 317 316 317 318 318 318 319 320 320 320 320 321 320 318 315 313 312 313 311 308 307 307 307 307 306 306 305 305 304
308 308 309 311 314 314 315 316 315 314 312 311 312 312 313 315 315 316 318 319 319 319 319 320 319 320 321 322 321 320 318 320 323 321 317 320 318 311 306 308 311 314 314 314 316 318 320 321 321 322 323 324 324 321 317 318 317 315 316 316 316 316 316 317 318 319 320 320 320 319 319 321 320 315 314 313 312 312 310 307 306 307 307 307 306 306 305 305
309 308 308 310 312 312 312 313 315 315 313 312 313 313 312 314 315 316 317 318 319 319 318 318 319 320 322 321 321 322 319 318 320 320 318 318 315 309 306 306 308 311 313 313 314 318 321 320 319 321 321 321 323 319 315 316 318 317 316 316 315 315 316 317 318 319 321 321 320 320 319 320 319 316 316 316 314 312 310 306 307 307 307 306 306 306 306 306
310 309 308 309 311 311 311 312 313 315 315 313 313 314 313 314 315 316 316 317 318 319 318 318 318 320 321 321 321 321 320 319 319 319 318 316 313 310 309 308 307 308 311 312 312 315 320 319 317 319 319 318 319 318 316 316 316 316 316 315 315 315 315 316 317 317 319 320 320 320 321 321 318 317 317 315 312 310 308 307 307 307 307 307 307 306 306 306
309 310 309 309 310 310 310 311 312 314 315 314 313 313 313 313 315 315 316 316 317 318 318 319 318 319 320 320 321 320 320 320 319 318 317 316 314 313 312 312 309 306 308 311 311 312 317 318 316 317 318 317 317 317 316 315 315 315 315 315 314 314 314 315 316 316 317 318 318 319 321 320 318 317 315 311 308 307 306 307 308 308 307 307 307 307 307 306
309 309 310 310 310 310 310 311 311 312 313 313 313 312 311 312 314 315 315 316 317 317 317 319 318 318 318 319 320 320 319 320 320 318 316 315 314 313 314 314 310 306 307 311 311 311 314 317 316 315 317 317 316 316 316 315 315 315 316 315 313 313 313 314 314 315 316 316 316 317 318 318 316 313 310 308 307 307 306 306 307 307 308 308 307 307 307 307
309 309 310 310 310 310 310 311 312 312 311 312 312 312 312 312 313 314 314 315 316 316 316 318 318 317 317 317 318 319 318 318 319 316 315 316 315 314 315 313 310 308 308 309 311 312 313 314 313 315 317 317 316 316 316 314 314 314 315 314 313 312 313 313 313 314 315 315 316 316 316 318 316 312 308 307 306 306 305 305 306 307 308 308 307 307 307 308
308 308 309 309 310 310 310 311 312 312 311 311 311 311 312 312 312 313 314 314 314 315 315 316 317 316 315 316 317 318 317 316 316 314 313 315 314 313 314 312 310 310 309 308 310 311 311 312 312 314 317 316 314 315 315 314 314 316 316 316 314 313 314 314 313 314 314 314 316 316 315 317 317 314 311 310 309 308 307 307 307 307 307 308 309 309 309 309
Wind_Speed
13 12 12 12 11 11 11 11 11 11 10 10 10 9 9 10 9 9 9 7 6 5 4 2 1 2 2 3 3 4 4 6 8 9 6 4 6 7 6 3 1 3 4 4 5 5 5 6 6 5 4 5 4 5 6 5 6 4 2 4 2 0 1 1 1 4 5 4 5 5 3 4 5 4 4 2 3 8 7 7 8 6 5 5 5 4 2 2
12 12 11 11 11 11 11 11 11 11 11 11 10 10 10 10 9 9 8 7 6 5 3 2 1 2 2 3 4 4 5 8 9 7 5 7 7 4 3 3 5 5 4 3 4 4 5 5 2 2 4 4 2 3 4 4 6 3 3 4 1 3 1 1 4 4 5 7 7 6 3 5 7 6 5 1 2 10 8 6 8 8 7 6 4 2 1 2
11 11 11 11 11 11 11 12 11 11 11 11 11 11 10 10 9 9 8 7 5 4 3 2 2 2 2 3 4 5 7 9 6 3 4 6 4 2 6 8 9 8 6 6 5 4 3 3 1 2 4 2 1 1 2 3 4 2 3 4 2 4 3 6 9 8 7 11 10 7 3 4 7 7 6 2 2 6 7 7 7 8 9 7 5 3 3 4
11 11 11 11 11 11 11 11 11 12 12 11 11 10 10 10 9 9 8 6 5 4 3 2 2 2 2 3 4 6 8 6 2 3 4 4 5 9 12 12 10 9 8 6 6 5 4 4 3 3 4 2 2 1 2 3 2 2 2 4 4 3 4 5 8 8 8 10 9 7 3 1 5 6 4 4 2 1 6 10 9 10 11 9 7 5 4 6
11 11 11 11 11 11 11 11 11 11 11 11 11 10 10 10 9 8 7 6 5 4 3 3 3 2 3 3 3 6 7 3 2 4 5 6 8 11 12 10 8 7 7 5 6 7 5 4 4 3 2 2 1 2 2 4 4 3 2 4 3 4 4 3 6 5 5 6 5 5 2 2 5 5 3 5 4 4 9 12 11 11 9 7 7 6 6 8
11 11 11 11 11 12 11 11 11 11 11 10 11 10 10 10 9 8 7 7 6 5 4 4 3 3 3 2 4 5 4 1 2 2 4 6 8 9 9 5 2 3 5 5 5 6 4 3 3 4 2 1 1 3 1 3 5 2 1 3 7 5 6 6 5 3 2 3 3 2 2 4 5 3 4 5 6 7 11 13 11 10 9 9 10 9 9 10
12 11 11 12 12 12 12 11 11 11 11 11 11 11 10 10 9 8 8 7 6 6 5 4 4 3 2 3 4 3 3 2 4 3 3 5 6 6 5 2 3 5 5 3 3 4 3 3 4 5 4 3 2 3 2 2 4 3 0 2 5 4 7 7 5 5 3 4 4 3 4 5 4 2 3 6 7 8 12 11 9 8 9 10 11 11 11 11
13 13 12 12 12 12 12 12 12 12 12 12 12 11 11 10 9 9 8 7 7 6 6 5 4 3 2 3 3 3 4 2 5 5 4 5 4 5 4 5 5 4 3 2 3 3 4 5 4 4 3 2 2 2 2 3 4 4 1 1 2 1 5 7 6 6 6 6 6 5 6 7 6 4 4 7 10 11 11 9 7 8 8 9 10 11 11 11
14 14 13 13 13 13 13 13 13 13 13 13 13 12 12 11 10 9 8 8 7 6 6 5 4 3 2 2 2 4 3 2 5 5 4 4 5 6 6 6 4 3 2 1 3 2 2 3 3 3 2 1 3 2 3 3 2 2 1 2 3 2 3 6 8 8 7 7 8 6 6 9 9 6 6 9 13 12 10 8 7 9 10 10 10 10 10 9
14 14 14 15 15 15 15 15 15 14 14 14 13 13 12 11 10 9 9 8 7 7 6 5 4 3 2 1 0 2 1 2 3 3 2 2 4 5 5 5 4 4 3 1 3 2 1 1 0 1 1 2 3 1 2 2 1 2 2 4 5 7 8 8 10 11 9 9 11 8 6 9 8 6 5 9 15 13 11 10 9 10 11 11 10 9 8 7
15 15 15 16 16 17 17 16 16 16 15 15 14 14 12 11 11 10 9 8 8 7 6 5 4 3 2 2 2 2 2 2 3 2 2 2 2 4 4 4 3 2 2 2 3 3 2 2 4 2 1 1 2 1 2 3 3 2 3 6 8 10 12 11 11 13 10 7 12 12 5 5 4 5 7 13 17 14 13 13 12 12 12 11 9 8 7 6
17 17 16 17 17 18 18 18 18 17 16 15 15 14 13 12 11 10 10 9 9 8 7 5 4 4 3 4 6 6 5 6 6 6 6 6 5 6 5 4 3 1 2 3 2 2 4 4 4 2 1 1 1 1 2 2 2 1 1 3 7 7 8 12 13 16 12 4 10 10 2 5 5 6 7 13 18 14 14 15 14 13 11 10 8 8 8 8
18 18 18 18 18 19 19 19 19 18 17 16 15 14 14 13 12 11 10 10 9 8 6 5 5 5 4 6 7 6 6 8 9 10 10 10 9 8 7 6 5 3 3 4 3 2 3 4 4 3 2 1 0 1 1 1 2 1 1 1 3 6 5 10 11 15 12 5 12 10 1 6 7 8 8 13 18 16 15 16 15 14 11 10 9 9 9 9
20 19 19 19 19 20 20 20 20 19 18 17 16 15 14 13 13 12 11 10 9 8 6 6 5 5 5 6 7 7 8 8 10 11 11 11 10 8 8 7 6 6 5 5 5 4 3 4 5 4 2 2 1 1 0 0 2 1 1 1 1 2 5 7 3 13 9 4 13 11 1 7 7 6 12 15 18 18 17 17 16 15 12 12 11 10 11 10
22 21 20 20 21 21 22 21 20 19 19 18 17 16 15 14 14 13 11 10 9 7 6 5 5 5 5 6 7 8 9 10 12 13 13 12 11 9 8 8 8 8 7 7 7 6 5 6 5 3 2 3 2 2 2 3 1 1 1 3 2 2 5 7 1 13 8 3 11 9 1 7 7 8 14 16 19 19 18 18 17 16 14 13 12 11 11 11
24 23 21 21 22 22 22 21 20 20 20 19 18 17 16 15 14 13 12 10 9 7 6 5 5 4 4 6 7 8 10 12 12 11 11 11 11 10 9 8 7 7 7 6 5 5 6 7 5 3 3 3 3 4 4 4 4 2 2 3 3 2 3 5 2 8 8 5 7 6 3 4 5 9 16 16 20 20 18 19 18 17 16 15 14 13 12 12
26 25 23 22 23 23 23 22 21 21 20 19 18 17 16 15 13 12 11 10 8 7 6 5 5 4 5 7 8 10 13 13 11 10 9 8 9 10 9 7 5 4 4 5 5 6 8 7 5 2 2 2 2 5 4 2 3 3 1 3 4 3 2 2 4 6 7 7 5 5 4 5 5 9 18 19 21 21 20 21 22 20 19 17 15 14 13 12
27 26 24 24 24 23 23 22 22 21 20 19 18 16 15 14 13 12 11 10 8 6 6 8 6 1 7 11 11 11 11 11 10 10 8 9 10 9 8 5 4 4 5 5 6 7 7 5 3 1 1 0 2 5 2 4 4 3 3 2 4 3 3 4 3 4 7 5 5 4 5 10 8 6 16 21 22 23 23 23 23 23 21 19 18 17 15 14
27 27 25 24 24 24 23 23 23 21 20 19 17 16 14 12 10 10 11 10 11 7 3 10 12 3 2 8 11 11 10 9 8 9 9 10 10 9 8 5 4 7 7 4 3 8 8 3 3 2 1 4 5 6 7 7 7 6 6 4 4 3 4 4 4 5 8 4 5 7 7 10 9 7 13 20 23 24 22 19 21 23 22 21 20 19 18 17
26 26 26 25 24 24 23 23 22 20 19 18 17 15 12 9 5 6 12 16 19 15 7 8 14 10 4 4 8 10 9 9 9 9 10 10 11 10 10 8 6 6 5 4 3 6 8 3 2 5 6 7 7 9 10 8 6 5 4 3 4 4 5 4 3 5 7 5 6 9 8 9 8 7 12 21 22 20 20 18 20 25 24 24 23 21 20 18
25 25 26 25 24 23 22 23 21 19 19 18 18 16 10 10 6 3 10 15 20 22 18 14 13 13 9 6 8 9 9 10 10 10 9 11 13 11 11 10 7 3 5 5 4 3 6 5 6 9 9 7 7 9 9 8 7 6 5 5 5 4 6 5 3 4 3 3 5 6 7 9 8 7 12 17 14 16 24 23 24 27 26 26 25 22 21 20
25 25 25 24 24 23 22 22 20 19 19 19 21 18 12 12 11 6 5 8 13 17 20 20 19 18 15 12 10 10 11 9 9 12 12 15 16 11 11 10 5 4 4 4 4 2 4 5 8 11 8 6 6 7 7 7 7 7 6 5 5 4 4 4 2 1 0 2 4 6 6 8 9 8 9 15 17 22 32 33 30 32 30 29 27 25 25 23
26 25 24 25 25 23 22 21 20 20 20 21 22 20 14 11 12 9 4 5 10 14 18 20 22 25 22 16 14 16 16 11 11 15 16 18 18 14 13 10 5 4 4 4 5 4 4 6 11 14 9 6 8 7 6 6 5 6 5 4 5 4 3 3 4 3 1 1 2 5 6 6 7 7 7 17 25 22 25 29 27 29 32 31 30 28 27 25
26 25 26 25 23 23 22 19 19 21 21 22 21 20 16 12 10 7 5 4 7 12 19 20 22 27 27 21 18 21 20 16 15 17 20 22 19 13 12 11 7 5 5 8 9 8 7 6 7 11 9 7 7 7 6 6 4 4 5 6 5 4 5 5 3 1 2 4 2 3 6 6 6 9 10 11 15 11 11 18 20 23 28 29 28 28 27 25
27 26 27 26 24 23 20 17 21 21 20 21 21 19 17 13 9 4 2 3 5 7 12 16 18 22 26 24 20 20 19 18 19 19 21 25 22 12 9 13 9 5 8 9 8 8 9 8 4 6 7 8 7 7 6 7 5 5 5 7 7 6 6 5 0 3 4 5 3 1 3 6 3 8 10 4 5 6 7 13 19 22 24 26 27 28 27 25
28 27 28 27 25 21 19 19 23 22 21 22 20 19 17 13 8 4 2 2 5 3 4 10 12 12 18 21 21 17 10 11 17 21 21 23 24 15 7 9 7 5 8 7 4 4 5 10 9 6 7 8 7 7 6 7 5 4 5 6 8 8 7 7 4 1 1 4 4 2 2 7 4 4 8 4 5 9 8 10 17 20 22 26 29 29 29 27
28 28 29 28 25 24 25 24 23 24 23 20 19 19 18 14 10 6 4 3 5 5 8 9 10 9 12 19 26 18 3 6 13 19 24 23 25 19 8 6 5 5 6 5 4 3 4 10 10 8 8 7 7 6 6 8 6 4 5 5 7 8 8 8 6 4 4 3 4 1 3 6 8 6 7 7 7 9 10 11 13 18 24 27 30 30 29 28
29 29 29 29 28 29 30 26 24 26 22 16 17 21 19 16 13 8 5 1 3 6 6 6 9 10 12 20 29 17 5 11 10 13 26 27 24 17 8 8 7 6 8 6 5 3 2 8 9 9 8 6 6 5 6 9 5 6 5 5 6 6 5 4 3 2 2 2 3 2 4 3 9 5 2 5 7 10 13 14 14 20 27 28 30 30 29 28
29 29 30 31 29 29 29 25 24 23 18 12 16 22 22 19 13 6 3 2 2 4 4 7 9 9 15 20 21 13 8 7 3 10 23 22 21 11 4 8 6 5 8 8 6 2 1 5 7 8 7 6 5 1 4 8 5 4 4 5 6 4 4 5 4 3 3 2 5 5 5 3 9 3 3 1 6 10 13 12 14 21 28 29 31 31 29 28
30 29 31 32 31 31 30 28 25 19 16 15 19 25 25 19 10 4 2 3 1 2 4 8 8 10 18 14 6 5 6 2 4 12 14 11 14 8 2 7 4 3 2 4 4 2 1 2 2 2 4 5 5 3 2 4 6 6 6 6 7 6 5 4 2 5 2 6 6 9 9 6 6 3 5 5 5 7 9 8 9 15 25 30 32 33 31 29
31 31 31 34 37 36 34 34 29 21 20 20 24 30 25 11 4 3 6 1 1 2 5 4 4 9 16 12 6 6 4 2 6 11 7 4 7 5 3 5 2 2 1 5 4 4 3 2 0 1 5 6 7 4 5 3 5 7 5 4 4 4 4 4 4 3 2 8 5 10 11 9 8 6 3 5 5 4 7 8 7 12 23 31 32 32 32 31
31 32 33 35 38 37 37 38 31 24 23 23 30 33 19 4 1 6 6 3 1 5 6 4 4 7 11 11 9 8 5 3 6 8 5 4 5 6 5 5 5 2 3 5 3 3 2 3 2 1 4 6 6 4 4 5 3 5 5 6 3 1 2 2 2 2 5 7 4 8 8 7 9 9 7 10 10 7 7 9 11 16 24 29 30 31 32 33
32 31 34 37 38 39 40 36 30 29 26 25 30 24 9 3 7 10 9 4 2 3 4 5 6 8 11 9 5 6 5 3 7 7 4 4 4 6 4 3 6 3 2 5 3 2 3 5 2 2 3 8 9 6 3 2 2 5 6 6 5 3 1 3 3 3 4 5 4 4 5 3 5 5 8 12 11 8 7 9 13 19 26 30 32 33 33 33
35 32 35 37 38 40 39 34 32 32 29 27 24 13 5 8 11 12 14 10 3 2 4 5 7 8 8 6 4 6 5 2 7 7 4 5 5 5 4 6 8 2 3 3 2 5 4 6 5 7 4 9 11 9 7 5 5 6 5 6 5 5 4 4 4 4 4 4 4 1 3 4 3 2 6 8 7 6 5 6 8 14 23 29 31 32 33 33
39 37 39 38 39 42 39 36 35 32 33 30 17 8 9 10 11 12 13 9 3 3 3 6 9 7 5 3 2 7 5 2 6 6 4 6 5 6 6 7 9 5 4 4 1 4 6 7 7 6 5 12 12 8 7 8 3 3 2 4 4 5 5 3 3 4 2 2 3 2 4 4 4 5 4 3 4 5 4 3 10 15 21 27 29 31 33 34
42 41 42 42 44 45 42 40 36 33 36 28 10 8 13 11 10 8 7 8 7 5 7 6 5 4 6 3 3 7 4 2 6 5 4 5 3 5 5 5 11 11 8 7 3 3 4 5 4 1 4 7 8 5 7 6 4 2 2 5 4 3 5 3 3 1 2 4 4 4 5 4 3 7 4 2 2 3 4 4 11 18 24 28 30 33 35 35
45 46 46 48 48 44 45 46 40 38 39 25 9 10 11 10 9 5 4 8 10 11 9 5 5 6 7 5 4 8 4 2 6 5 3 3 3 7 7 5 12 17 14 10 4 3 5 3 3 2 2 3 1 4 3 2 6 5 4 6 2 2 1 2 2 2 1 5 4 4 7 5 2 5 2 3 1 3 3 3 8 14 22 27 29 33 36 36
47 48 48 52 50 45 47 47 42 46 38 16 10 14 10 11 13 8 7 9 11 12 10 7 7 7 7 7 5 8 7 4 7 6 4 4 4 8 11 7 11 20 21 14 5 2 3 2 3 1 2 2 2 4 1 2 4 5 4 5 4 1 1 3 2 3 3 4 4 3 6 6 7 6 1 2 8 8 7 7 7 12 20 25 28 32 34 35
47 41 39 50 54 48 48 47 48 48 30 8 10 15 9 11 15 10 11 12 10 10 9 9 8 5 7 8 6 8 9 7 9 7 5 5 4 7 13 9 8 18 24 19 7 2 2 2 3 1 1 1 2 2 4 3 1 3 2 3 2 2 3 4 3 2 2 3 4 2 3 4 7 7 7 10 13 12 11 10 10 15 22 27 30 33 34 36
41 26 21 42 54 49 50 52 47 35 16 8 11 11 8 8 9 12 16 12 6 7 9 10 10 7 7 9 8 8 7 6 9 7 4 6 4 4 9 10 7 11 21 19 9 2 2 3 3 1 2 1 2 3 7 9 6 3 3 4 3 1 2 1 2 2 4 3 3 3 5 6 4 3 8 13 13 13 15 14 12 17 25 29 32 35 37 37
26 12 11 31 43 49 56 46 29 16 7 8 10 9 9 7 5 12 19 14 5 3 5 6 9 9 7 8 7 8 7 5 8 6 4 6 5 3 7 11 9 9 11 11 8 4 2 3 3 2 1 3 5 5 4 7 7 6 6 7 7 6 4 2 4 3 3 3 4 3 7 8 3 0 3 8 8 10 16 16 14 19 27 29 31 35 37 38
15 6 8 23 32 46 52 26 9 10 8 11 18 13 8 6 5 10 15 13 6 3 2 2 6 9 8 7 6 7 7 6 7 7 5 7 8 5 6 9 13 16 12 5 5 4 4 3 3 2 3 5 5 4 1 3 4 3 3 6 7 7 7 6 6 4 2 3 2 2 5 7 2 1 3 5 7 10 18 19 15 19 25 27 29 32 34 36
13 11 9 19 31 44 39 13 6 11 5 12 21 16 10 8 9 10 12 14 8 3 4 3 3 7 7 4 6 8 8 6 8 10 7 6 7 4 5 9 14 17 11 3 2 5 5 3 3 2 1 1 3 4 4 3 3 1 4 4 5 5 6 5 4 3 2 4 3 1 5 5 2 3 4 6 6 8 17 20 17 18 22 26 30 32 33 34
14 16 15 18 38 47 29 7 8 11 7 11 13 13 15 12 10 12 13 15 12 5 5 5 3 5 5 3 6 9 10 7 8 10 7 5 5 3 4 10 13 12 7 4 7 9 6 3 4 3 0 1 1 1 2 2 1 4 4 4 7 7 6 3 0 2 3 5 7 4 9 6 3 4 4 7 6 0 9 18 20 20 22 26 29 30 32 33
9 11 16 19 36 43 26 12 13 10 9 12 11 14 17 9 11 18 14 14 16 11 6 6 7 5 3 3 3 6 11 8 5 7 4 2 3 1 2 6 7 7 5 7 14 14 7 3 5 6 6 7 5 4 4 3 2 3 3 6 10 11 12 7 2 4 7 4 9 9 11 5 3 4 5 5 4 4 2 12 18 20 24 27 28 30 31 32
8 5 7 11 19 24 17 15 17 11 10 13 10 12 16 10 11 17 14 11 17 16 8 3 7 6 3 5 5 5 9 4 3 4 6 5 3 2 1 2 3 5 8 13 19 15 3 2 8 10 10 9 6 3 4 6 5 5 7 10 12 12 14 10 5 8 6 3 6 12 9 8 8 4 3 5 3 1 1 8 14 18 23 27 29 30 30 31
9 4 5 3 6 9 8 7 9 10 12 14 8 8 17 17 9 10 14 11 13 17 9 1 5 9 7 9 9 6 8 4 2 4 7 6 2 2 1 1 1 5 9 12 16 11 3 4 9 10 12 10 5 4 4 6 8 9 10 12 13 12 13 13 12 11 6 4 11 9 6 12 14 6 6 8 5 4 6 9 15 20 23 25 26 27 27 28
11 6 13 12 4 2 3 4 4 8 13 15 8 5 14 18 12 9 12 11 10 15 9 1 7 14 14 15 12 7 8 7 5 6 5 4 4 2 2 3 3 3 5 6 8 6 3 5 7 7 13 15 6 4 4 5 4 6 9 12 14 15 16 17 19 15 9 9 16 8 10 16 14 7 9 10 9 10 10 10 14 18 21 23 24 25 27 27
12 6 12 16 9 6 9 7 2 4 10 12 8 6 10 16 17 11 7 6 8 12 12 9 12 16 15 14 12 9 10 9 9 9 7 7 6 4 3 0 2 3 3 3 3 2 3 4 4 8 13 16 9 6 5 5 4 5 8 12 13 15 17 17 20 18 13 14 18 10 8 13 10 6 8 8 10 11 11 12 13 17 20 22 22 24 25 25
12 7 9 13 11 10 13 11 4 3 6 8 8 9 10 14 18 14 7 10 11 10 13 16 17 15 14 12 11 11 13 15 14 11 10 10 7 5 5 4 3 3 3 3 2 2 4 3 4 7 8 11 8 7 6 7 7 9 13 14 9 8 10 13 16 15 13 16 19 12 9 11 6 3 3 7 11 11 12 14 15 18 20 20 20 22 22 21
15 12 10 9 7 8 9 8 6 4 4 5 6 7 9 14 18 14 9 13 16 12 13 20 20 13 10 11 13 16 18 17 11 10 15 16 12 11 8 5 9 7 4 5 4 3 4 2 2 5 5 6 5 8 9 6 4 11 21 18 9 7 8 13 14 12 13 16 16 13 13 12 5 5 6 9 13 13 13 15 16 17 18 18 17 17 16 13
16 15 12 7 6 9 10 6 6 7 5 6 8 7 9 12 13 10 7 11 17 18 18 21 17 9 7 12 18 22 21 13 7 10 18 15 10 10 9 10 15 13 7 6 3 3 5 4 2 5 5 2 3 7 8 5 1 10 16 12 14 15 16 15 13 14 15 15 12 12 14 10 6 7 6 7 8 11 15 19 19 19 18 14 11 9 7 9
Wind_Direction
211 210 211 210 208 205 203 201 200 200 200 199 198 195 191 187 185 182 180 177 177 182 185 200 261 306 318 323 323 330 328 334 329 321 324 332 320 298 274 254 191 132 132 133 139 125 83 58 31 24 11 359 3 358 9 19 21 22 93 82 67 111 59 258 183 159 151 145 166 150 119 131 152 161 148 149 135 131 129 116 118 130 132 129 136 153 187 215
205 205 207 207 205 205 203 203 203 203 202 200 197 193 190 187 186 184 183 184 183 186 192 217 271 304 320 327 324 328 330 330 323 317 326 335 327 293 227 161 136 125 118 108 122 114 91 85 39 356 355 342 317 357 12 18 26 36 98 83 160 185 64 67 115 112 130 140 150 142 103 120 147 159 150 220 146 133 126 107 124 134 129 134 147 165 207 209
204 204 206 207 208 209 208 207 205 205 203 200 198 194 190 189 188 186 188 193 190 194 209 237 275 304 315 324 326 335 339 335 334 343 346 342 350 119 129 125 119 104 90 80 80 83 98 98 47 357 1 337 229 12 15 18 26 20 73 83 235 204 79 68 93 84 109 138 135 130 134 128 145 156 149 189 121 126 145 144 147 151 152 161 168 184 198 205
206 207 208 210 211 213 212 211 208 206 205 201 199 196 195 193 191 191 195 199 201 210 224 247 275 295 305 324 336 343 348 351 34 57 28 37 89 117 119 117 110 91 70 60 65 71 89 83 46 6 350 303 191 99 43 26 15 357 84 147 213 176 91 71 98 85 98 122 123 126 136 141 160 170 167 163 110 85 173 170 182 178 175 178 176 191 196 203
207 208 210 210 212 213 212 212 211 208 207 204 202 202 202 200 200 200 200 206 212 222 236 253 264 283 301 324 340 345 1 24 98 74 72 93 112 123 122 115 104 79 47 31 61 68 64 60 27 350 338 280 163 91 45 25 29 28 80 137 123 114 117 127 124 107 107 116 112 123 131 176 172 185 193 172 173 212 185 174 181 182 187 196 201 216 204 202
211 211 212 213 213 213 213 214 214 213 213 211 209 208 208 209 209 208 209 215 222 230 241 248 256 277 287 318 339 351 14 50 172 110 104 116 125 131 129 124 91 15 4 12 65 67 39 37 0 332 347 338 124 119 101 25 34 57 36 75 74 98 142 156 150 145 156 152 154 158 186 180 173 222 234 203 204 198 180 174 177 186 203 218 225 225 207 200
218 217 218 219 217 217 217 217 218 218 219 219 218 217 217 216 215 216 218 222 228 234 243 250 257 267 279 325 343 356 351 266 195 181 159 145 149 154 156 192 286 317 334 4 70 66 25 34 4 345 15 34 71 107 115 26 44 95 17 38 65 94 143 166 186 182 203 210 199 197 209 203 190 224 242 208 201 192 185 186 193 203 212 218 219 211 200 197
221 223 224 225 225 224 223 223 222 223 223 225 225 225 223 223 222 222 224 228 233 239 245 252 255 263 296 340 348 332 318 257 193 188 184 186 206 214 227 260 284 302 326 32 77 61 34 38 19 3 37 55 43 56 81 27 32 85 61 357 46 86 159 183 199 196 218 220 209 228 236 231 226 232 247 210 192 192 196 198 201 204 210 210 203 193 191 196
225 226 227 229 231 230 229 228 226 225 227 228 227 228 228 227 227 226 230 234 238 243 245 251 257 273 312 343 336 323 328 152 184 194 193 220 237 246 260 273 282 286 289 96 101 95 67 51 42 48 53 20 15 36 83 48 17 77 62 5 355 297 207 203 206 208 225 225 215 232 248 248 248 248 259 218 198 196 197 196 197 201 203 196 193 189 186 195
229 229 230 231 232 234 233 232 232 231 229 230 230 230 229 229 231 232 235 239 241 245 246 249 257 277 306 286 304 316 302 141 177 198 214 248 248 267 283 285 285 282 277 180 122 143 138 76 347 47 345 348 23 70 94 79 134 77 26 344 312 279 273 238 215 217 222 231 224 214 235 254 246 228 234 204 194 195 192 187 191 197 196 190 191 194 194 204
230 232 232 233 234 236 236 236 236 236 234 233 232 230 230 230 233 235 237 241 242 242 243 247 255 264 269 244 218 236 247 217 211 225 259 278 285 299 303 293 292 276 248 216 157 177 189 236 247 244 268 21 38 96 86 94 131 53 357 327 293 279 283 254 223 220 210 227 225 206 229 273 229 219 231 198 188 195 195 185 187 194 195 191 193 202 212 222
233 234 234 235 237 238 238 238 237 238 238 237 236 234 233 232 233 236 238 240 241 241 242 248 252 253 257 254 254 261 265 247 239 250 263 275 282 286 289 282 278 226 210 226 196 182 201 225 229 213 169 141 32 59 83 108 130 9 342 314 296 315 300 253 233 218 201 201 206 187 292 296 220 226 232 194 186 189 191 184 184 193 197 197 201 209 219 227
236 237 238 238 238 239 239 239 238 238 238 239 240 239 237 236 237 237 239 239 239 241 242 247 253 259 261 257 266 271 260 246 248 258 262 269 274 275 271 260 253 238 224 233 227 197 199 199 197 197 166 145 276 105 136 161 130 287 249 160 314 351 316 260 239 208 193 178 178 162 305 275 246 228 192 180 182 180 180 179 183 192 199 205 210 215 219 224
239 239 240 240 240 240 241 240 239 239 238 238 238 240 241 239 239 237 236 236 235 238 242 248 254 260 254 253 267 265 250 244 249 257 259 263 267 266 259 247 242 242 240 239 233 233 220 192 195 208 204 196 167 129 86 54 141 223 336 72 15 347 285 296 233 176 171 184 171 147 217 257 275 225 179 179 182 179 179 178 186 195 201 209 212 214 217 221
242 242 242 242 241 241 241 240 240 240 238 237 236 237 238 238 238 235 232 232 232 234 239 244 248 252 252 255 260 252 245 244 247 253 256 261 261 257 251 239 238 243 245 248 242 240 222 193 195 196 178 183 136 88 21 0 336 73 54 320 318 177 264 312 168 167 163 185 171 143 203 261 277 209 182 182 182 184 186 183 191 199 202 209 212 215 216 221
241 243 243 244 243 242 241 239 237 239 238 237 236 235 235 236 236 233 231 228 230 232 230 233 229 226 250 262 255 246 242 240 242 248 251 257 256 249 243 237 241 244 241 240 228 209 193 183 178 163 152 154 120 90 49 8 334 359 131 247 267 186 264 317 277 196 165 136 181 184 203 262 271 197 185 187 186 189 191 190 196 202 206 207 211 218 217 221
238 240 243 243 243 242 240 237 234 234 235 234 233 232 233 234 233 232 229 223 223 218 213 214 213 225 252 253 244 242 240 237 241 245 244 246 244 242 238 234 236 227 210 200 189 176 179 175 160 165 164 142 118 94 59 343 298 318 194 228 250 209 223 269 293 247 168 139 198 221 225 245 260 193 189 195 193 193 196 198 200 202 207 207 208 215 216 223
237 238 240 240 242 241 238 236 233 230 232 231 229 228 228 231 231 228 225 223 214 202 215 210 189 235 258 237 230 241 242 235 238 241 236 229 229 233 228 225 216 182 169 176 179 171 170 166 148 148 9 87 136 114 127 226 209 211 194 214 261 248 235 223 257 229 168 161 198 200 243 249 261 218 199 202 199 200 204 203 203 202 204 204 205 209 212 222
237 237 237 237 238 238 237 235 232 229 227 225 223 220 221 224 226 228 223 213 197 181 214 207 191 175 237 218 218 232 237 222 219 224 219 213 214 213 196 184 177 163 156 158 189 179 164 120 97 128 222 208 192 168 190 205 182 184 185 173 195 230 266 234 241 221 172 172 218 205 228 244 247 234 213 209 204 207 213 209 204 202 202 203 203 206 210 217
239 236 233 233 232 234 235 233 232 228 221 220 215 209 207 199 195 231 221 215 215 216 227 209 203 210 199 173 198 208 207 199 204 212 209 202 199 189 169 161 160 161 161 158 188 187 165 148 166 197 213 201 194 197 207 210 199 214 225 228 209 213 266 250 247 244 171 161 238 222 227 248 243 231 221 214 206 209 217 215 208 202 202 203 201 202 207 213
238 234 231 229 228 229 231 232 231 223 217 214 206 199 192 184 181 224 216 226 237 234 238 238 227 228 225 220 217 209 194 186 198 206 197 188 184 175 169 164 148 183 217 170 142 154 166 193 218 217 213 191 192 205 211 219 229 243 242 256 261 228 252 255 226 241 175 173 257 251 246 257 252 238 224 210 200 210 213 211 209 204 202 204 202 201 204 210
235 232 230 226 224 225 227 230 228 219 212 207 202 199 194 195 203 218 219 250 256 242 239 238 234 235 232 232 231 219 202 185 192 199 185 176 179 182 176 164 150 198 207 146 110 135 198 232 231 223 214 196 218 222 212 218 223 236 234 238 256 245 261 295 312 295 75 191 252 282 268 260 263 256 226 204 203 216 215 212 210 205 201 201 201 201 203 207
235 230 228 225 222 221 224 226 223 216 209 207 206 201 196 195 203 217 238 278 274 252 239 233 230 228 223 222 218 208 202 195 198 198 186 177 181 190 176 161 179 188 161 156 161 177 213 246 233 220 207 199 231 241 229 232 226 221 218 206 238 252 242 273 299 283 259 214 233 286 280 265 271 275 250 216 215 223 222 218 216 210 205 205 205 205 207 209
234 229 227 223 219 220 222 220 220 217 210 209 210 203 198 194 192 213 244 269 281 256 245 242 235 229 223 218 213 209 211 215 213 201 191 184 179 182 184 179 179 175 192 195 189 199 213 231 217 197 197 204 220 235 224 223 243 233 205 190 210 225 213 232 278 296 320 332 304 300 298 274 238 245 257 231 217 229 226 215 218 216 212 210 207 208 212 216
234 229 226 219 216 218 213 214 221 217 210 210 209 201 200 198 182 192 249 284 282 255 249 240 234 236 227 217 210 208 217 224 221 210 200 193 185 174 184 192 183 186 210 200 197 222 228 230 202 159 192 210 211 229 212 192 224 261 225 200 201 202 218 236 212 61 0 318 275 200 285 280 246 233 253 243 188 221 216 205 208 209 208 207 204 205 209 214
234 229 225 216 212 206 199 213 223 218 215 214 205 193 194 190 171 168 122 12 287 219 182 203 211 225 214 203 194 193 224 234 215 213 207 203 199 188 174 188 189 200 199 186 207 239 211 209 206 175 186 204 211 230 219 183 188 251 242 204 200 205 220 228 203 134 254 262 265 137 193 274 292 238 246 220 185 219 218 212 208 199 198 200 201 203 205 207
234 227 222 213 204 196 198 213 220 217 218 214 201 187 183 175 161 150 104 13 281 177 146 175 180 186 190 187 183 182 226 188 180 200 199 197 201 198 194 186 183 200 176 152 233 259 152 179 197 187 184 197 205 221 218 175 162 234 244 184 183 205 217 221 210 214 230 259 304 114 135 280 278 246 232 197 193 228 229 225 217 201 197 197 199 203 205 208
232 227 220 208 201 199 202 212 219 217 215 207 193 181 171 166 158 135 107 325 252 140 136 172 165 171 174 178 183 178 137 145 149 188 189 190 196 198 212 198 173 190 178 162 220 269 137 170 187 180 182 200 201 215 194 159 161 242 229 149 147 176 183 171 162 201 304 350 295 213 120 287 274 260 230 190 203 235 234 225 219 208 203 199 198 202 205 208
228 226 218 203 200 203 203 213 223 218 211 196 184 175 164 160 152 110 87 221 188 111 130 159 152 161 158 166 182 170 132 141 128 177 180 187 192 188 215 200 172 172 195 204 215 247 117 183 186 167 178 203 195 207 167 164 194 216 152 90 71 75 80 82 111 116 27 318 238 200 154 236 270 246 114 185 227 235 236 229 220 211 207 204 201 201 202 204
225 225 216 198 196 202 202 213 221 211 196 185 175 168 160 155 139 101 178 218 205 104 124 150 157 161 154 152 176 160 140 119 101 152 166 181 187 180 149 182 166 122 208 276 250 248 44 148 187 155 171 176 145 86 48 170 177 134 95 60 44 25 32 44 55 87 41 273 222 189 180 191 267 269 158 191 227 225 230 233 221 206 205 209 207 204 202 200
223 221 213 197 195 200 202 210 213 199 185 177 168 162 156 145 107 164 198 226 347 145 120 142 168 155 154 153 171 177 153 108 132 149 160 168 178 172 129 161 160 82 319 310 305 318 7 103 232 180 156 127 106 81 19 38 132 116 88 82 67 353 12 20 1 79 219 258 213 186 187 186 231 265 215 222 267 254 224 225 212 194 200 206 207 205 204 200
224 219 211 200 197 202 206 210 206 194 183 173 167 163 153 137 221 214 205 84 55 198 155 160 180 161 170 172 176 175 149 146 165 163 168 154 170 190 185 184 171 138 256 244 257 318 306 223 212 155 179 161 122 91 14 3 51 99 103 113 121 282 9 5 293 171 227 259 234 187 184 200 236 258 257 253 269 264 232 229 221 202 197 197 198 201 202 200
223 216 211 206 202 204 210 211 203 193 187 176 171 167 151 175 204 212 208 174 184 203 137 147 168 165 172 177 182 166 140 164 176 169 168 145 170 214 243 239 191 168 204 196 195 212 276 291 206 138 245 196 163 152 185 257 172 148 138 143 161 171 202 247 228 235 251 263 269 189 172 235 271 273 253 249 263 279 277 262 242 217 200 192 192 195 196 196
217 214 213 210 207 206 209 211 206 196 188 176 172 174 178 198 209 210 209 207 188 110 109 132 144 152 171 181 187 167 154 198 173 158 157 147 168 215 236 241 217 177 97 145 174 178 215 288 202 179 203 184 182 189 173 140 158 183 151 140 163 163 183 217 200 219 249 270 286 239 165 201 209 246 242 247 280 321 317 261 223 207 197 188 185 187 188 190
214 212 212 210 211 213 212 209 205 197 186 176 172 188 189 198 218 216 209 202 165 98 105 119 122 139 194 219 205 184 174 195 173 157 169 172 181 197 196 209 200 168 135 170 222 173 201 263 225 189 156 163 184 195 142 114 152 224 119 121 189 184 181 220 209 188 185 297 278 214 220 214 208 254 244 244 301 0 33 149 152 161 175 176 177 181 185 188
216 211 210 211 211 215 214 208 203 194 186 180 179 202 198 207 214 201 196 186 168 133 111 118 127 149 196 206 212 209 196 131 163 170 195 199 211 196 186 197 191 186 181 177 188 168 185 271 268 126 118 166 188 177 148 154 179 182 150 178 203 169 163 214 272 88 104 275 260 190 244 282 298 271 243 125 320 4 41 125 146 155 164 170 177 181 185 190
216 210 210 213 212 212 211 207 199 191 189 189 199 204 203 218 205 166 176 175 153 142 138 164 188 167 185 193 193 202 195 116 165 177 186 196 226 197 191 207 193 196 201 191 200 193 166 248 286 105 159 234 203 127 126 151 142 134 190 197 146 49 101 151 273 324 180 256 266 192 232 255 239 263 305 79 237 258 243 188 159 164 168 173 181 184 188 192
216 211 210 214 214 208 205 204 197 189 190 198 213 207 208 216 204 177 167 163 144 151 171 204 196 168 182 189 184 190 185 171 178 179 177 196 244 196 181 198 196 197 204 200 216 245 157 215 284 52 193 264 49 118 99 6 125 138 189 183 132 107 203 144 192 234 203 244 275 233 232 228 207 219 211 182 217 220 217 202 185 184 182 182 185 186 190 192
213 210 213 216 213 206 202 203 195 186 187 208 213 206 213 213 205 187 173 172 162 166 188 206 195 181 190 180 167 181 189 185 172 171 181 191 234 196 176 186 197 198 200 194 200 237 136 196 258 331 261 258 47 138 177 208 190 61 82 168 137 134 173 168 179 185 174 216 252 279 273 239 222 205 182 199 212 203 196 200 202 199 192 189 187 187 191 193
210 206 223 219 211 208 204 198 191 183 186 212 209 211 220 211 201 200 202 196 171 175 199 203 191 189 195 180 165 173 188 189 173 179 201 186 203 225 187 183 185 192 194 191 192 169 126 207 223 299 326 180 178 207 191 185 182 141 147 178 185 132 114 184 215 161 148 186 222 268 278 259 238 201 191 204 210 198 193 198 204 202 196 193 191 191 192 195
218 207 233 219 212 207 200 193 188 185 188 205 216 230 225 214 196 207 218 222 211 198 200 196 197 196 186 178 176 171 173 183 182 188 211 194 198 233 197 188 177 165 172 185 201 192 173 199 175 152 229 201 225 251 218 188 182 177 183 184 185 179 156 193 241 206 161 196 189 205 268 266 239 272 232 216 217 207 200 200 200 200 197 195 195 195 196 197
237 250 227 212 214 203 191 185 193 186 180 201 210 214 201 197 211 208 217 225 233 257 218 182 208 203 187 179 181 170 166 178 188 192 206 206 203 198 194 189 171 158 151 166 201 162 117 124 141 165 208 214 250 287 272 158 147 150 205 196 188 190 177 188 226 214 185 231 181 143 278 279 265 299 287 262 254 230 210 205 201 197 196 195 195 198 199 200
238 270 246 201 208 202 189 184 209 186 197 212 206 208 196 196 208 198 205 215 214 213 204 203 213 206 200 172 161 170 174 179 191 195 197 205 209 201 184 177 165 158 153 154 177 135 114 136 173 195 279 316 311 328 3 48 85 187 240 197 185 204 193 194 205 169 191 228 168 138 261 267 313 302 309 324 297 233 207 205 199 192 192 193 196 198 200 201
232 262 266 207 196 195 188 189 197 188 206 201 195 208 209 212 212 194 197 207 203 185 187 203 205 202 206 164 154 177 185 190 205 203 192 191 200 177 160 177 172 162 161 175 170 164 166 173 160 162 227 322 327 318 307 326 199 215 224 182 189 199 194 215 149 120 245 214 155 188 247 243 289 305 346 4 356 108 192 200 198 191 187 190 196 199 199 200
220 251 269 234 200 193 193 202 196 189 194 187 188 203 204 215 218 206 202 202 204 202 192 203 199 178 178 166 143 179 192 193 197 192 181 174 204 201 159 183 177 161 167 170 161 162 171 181 167 177 206 216 212 199 199 199 192 213 199 183 198 198 194 208 210 206 236 179 149 210 246 257 311 324 355 0 3 32 146 189 194 194 190 190 195 198 198 199
184 213 262 257 221 211 217 212 194 184 184 185 189 199 201 210 212 208 207 201 206 207 197 190 186 170 169 175 162 194 206 201 84 158 183 180 195 295 245 168 147 137 140 148 155 154 138 211 195 202 218 215 200 191 174 138 147 197 201 191 199 203 196 195 212 222 212 126 197 224 239 272 278 277 296 287 275 318 202 175 182 191 193 193 195 197 198 201
180 192 189 220 254 241 255 243 196 185 186 184 180 186 198 206 203 199 208 209 204 200 197 42 175 186 194 189 190 202 197 183 102 163 185 172 143 5 52 109 76 139 134 141 154 147 98 217 209 211 231 230 182 145 163 149 170 197 198 196 202 202 194 194 216 220 151 151 243 224 177 247 255 216 219 241 220 222 219 187 184 188 188 190 191 193 196 200
188 200 194 202 252 264 234 251 204 198 192 184 186 184 191 202 200 187 202 211 201 193 192 250 208 206 202 194 201 203 181 188 199 187 173 146 128 68 48 7 330 184 144 140 158 138 122 213 210 200 232 242 214 158 164 157 185 204 196 203 203 196 194 199 217 220 168 197 247 221 176 231 245 208 214 217 193 202 203 186 183 180 179 182 184 188 193 197
193 193 187 196 216 243 241 237 218 233 207 182 189 203 190 200 204 195 183 184 200 202 196 205 215 213 207 199 198 196 185 192 206 199 177 159 160 150 127 0 267 199 154 141 170 153 155 203 186 181 228 247 232 204 189 174 223 247 218 216 209 201 202 205 217 224 207 222 245 238 213 243 245 216 222 207 191 193 178 168 169 164 167 173 177 185 191 195
200 199 178 183 204 239 247 236 205 248 228 190 198 206 195 202 204 199 181 174 191 201 198 212 219 207 203 203 197 204 207 204 208 201 172 163 175 181 179 180 168 157 161 168 182 191 190 197 148 159 227 253 225 207 211 202 222 248 243 231 207 187 207 218 226 226 218 233 244 244 254 260 239 185 160 152 155 149 148 161 164 161 165 168 174 185 190 194
215 210 186 174 198 217 227 229 206 218 235 206 209 203 199 210 207 200 199 198 201 195 189 210 219 203 198 206 204 217 218 207 203 190 175 177 185 189 191 164 142 145 169 179 168 167 186 202 105 142 214 241 195 194 210 202 219 260 256 239 191 159 206 221 226 219 212 229 237 237 248 249 205 121 105 132 140 135 147 165 167 168 168 165 173 184 190 198
224 224 209 193 206 197 194 211 213 216 221 203 206 208 210 219 210 195 206 217 214 210 205 212 212 187 185 206 212 224 223 204 182 178 182 187 183 178 179 158 151 155 164 173 173 161 166 166 138 161 196 223 164 180 182 149 176 263 257 220 181 197 218 220 225 221 214 220 224 226 238 234 175 140 135 145 153 153 160 166 167 169 168 168 182 197 217 238